Location: Apeadero de Los Molinos-Guadarrama
(40.7091°N, 4.0689°W)
Time: 13:29:25
(UTC+00:00)

USA 305 - Pass Details

Date: 14 May 2021
Orbit: 567 x 573 km, 54.0° (Epoch: 07 May)

Event Time Altitude Azimuth Distance (km) Brightness Sun altitude
Rises 20:24:40 0° 314° (NW) 2,772 8.5 -10.4°
Reaches altitude 10° 20:27:05 10° 324° (NW) 1,873 6.9 -10.7°
Maximum altitude 20:30:59 34° 30° (NNE) 950 4.1 -11.3°
Enters shadow 20:34:26 12° 93° (E) 1,714 4.8 -11.9°
